Wind_Speed
37 36 35 35 34 33 32 29 28 26 24 21 20 18 17 16 15 14 14 14 14 14 14 14 15 15 16 16 16 16 16 16 16 16 16 16 16 15 15 15 14 14 13 13
38 37 36 36 35 34 33 31 29 28 26 23 21 21 19 18 16 16 16 16 16 16 15 15 15 16 16 16 16 17 17 17 16 16 17 16 16 16 16 15 15 15 15 14
38 37 37 38 36 35 34 32 30 28 26 24 23 21 20 19 18 17 17 18 18 18 18 17 17 17 17 17 17 18 18 18 17 17 17 17 17 17 17 16 17 16 16 15
37 37 39 37 36 35 35 33 30 29 27 26 24 23 22 21 20 20 20 20 20 20 20 19 19 18 18 18 18 19 19 19 18 17 18 18 18 18 18 18 17 17 16 16
37 37 38 37 36 36 35 34 31 30 28 27 25 24 23 22 22 22 21 21 21 21 20 20 20 20 19 19 19 19 20 19 19 18 18 18 19 19 19 19 18 17 16 17
38 38 38 37 36 35 34 34 31 29 27 27 27 26 24 23 23 23 22 22 23 23 22 22 21 21 21 20 20 20 20 19 19 19 19 19 19 19 19 19 19 18 17 17
38 38 37 36 36 34 35 32 30 30 29 27 27 26 24 24 24 24 24 24 24 24 24 24 23 21 21 21 21 21 20 19 19 19 19 19 20 20 20 20 19 18 18 18
39 39 38 36 35 35 33 31 30 30 30 28 27 26 26 25 25 25 25 25 26 26 25 24 24 24 22 21 21 21 20 20 20 20 20 20 21 21 20 20 20 19 19 19
39 39 37 36 36 35 33 32 31 31 30 30 28 28 28 27 27 27 27 26 27 27 26 25 26 25 24 24 23 23 21 21 21 21 21 22 22 21 21 21 20 20 20 20
37 37 37 35 34 34 33 32 31 31 31 30 30 30 29 29 29 29 27 27 28 27 27 27 27 25 24 23 22 22 22 21 21 22 22 22 22 22 22 22 22 22 21 21
37 36 36 34 33 33 33 32 32 31 32 32 31 31 30 29 29 28 29 29 29 29 27 27 25 23 23 23 22 22 21 21 21 22 22 22 22 22 22 22 22 23 22 22
37 36 35 34 33 32 32 33 32 32 32 31 32 32 32 30 29 29 28 28 28 27 27 26 25 24 23 23 22 22 21 21 22 22 22 22 22 22 23 23 23 24 23 23
37 36 35 34 33 33 32 33 32 31 31 32 32 32 31 30 29 29 29 28 28 27 26 26 26 25 24 24 24 23 23 22 22 22 22 22 22 23 23 24 24 25 25 24
36 36 35 34 34 34 33 32 32 31 31 32 32 32 32 30 29 29 29 28 27 27 26 25 25 24 24 24 24 24 24 23 22 22 22 23 23 23 24 24 25 25 26 25
36 35 34 33 33 34 34 33 33 32 32 33 32 32 31 30 29 28 28 26 26 26 26 25 25 25 24 24 24 24 24 23 23 23 23 23 23 24 24 24 25 25 25 26
34 34 33 33 34 34 34 34 33 32 32 31 30 30 29 29 27 27 27 26 26 27 27 26 26 25 25 24 24 24 25 25 24 24 24 24 24 24 24 24 25 25 25 25
34 34 34 33 33 33 33 33 33 32 32 31 31 30 29 28 28 28 28 27 28 27 27 28 27 26 25 25 25 25 25 25 25 25 25 25 25 25 25 25 26 26 26 26
32 33 34 33 33 33 33 32 32 31 31 31 30 30 29 28 28 27 27 27 27 27 27 27 28 27 26 26 25 25 25 25 25 25 25 25 25 25 26 26 26 27 27 27
32 32 32 33 32 31 31 30 30 29 28 28 29 29 29 28 28 27 26 26 26 26 26 27 27 26 25 24 25 25 25 25 25 25 25 25 25 26 27 27 27 28 28 28
31 31 31 31 31 30 30 29 29 28 28 28 28 28 28 28 27 27 27 26 26 26 26 26 25 24 23 23 24 25 25 25 25 25 25 25 26 27 27 28 28 28 28 29
29 28 27 28 28 28 28 28 28 27 27 28 28 27 27 26 26 26 26 26 26 27 26 25 24 24 25 25 26 26 26 25 25 25 25 26 26 27 28 28 28 29 29 29
27 26 26 26 27 27 28 28 27 26 26 26 26 25 25 26 26 26 26 26 26 26 26 25 26 25 25 26 26 27 26 25 26 26 26 27 28 28 29 29 29 30 30 30
25 25 26 27 27 27 27 27 26 25 25 25 25 25 25 26 26 26 26 26 26 25 25 25 25 26 26 26 26 27 26 26 26 27 27 28 29 29 30 31 31 32 31 31
23 24 25 25 26 25 26 26 26 25 25 25 25 25 25 25 26 26 26 26 25 26 26 25 25 25 25 25 26 26 27 27 27 27 28 29 29 30 31 32 32 32 31 31
22 21 22 23 23 24 23 23 23 24 24 24 24 23 24 24 25 25 25 26 25 25 26 26 25 25 26 26 26 26 27 27 28 28 28 29 30 30 31 31 31 31 31 31
22 21 22 22 22 22 23 23 23 23 24 24 24 23 23 23 23 23 23 23 23 23 23 23 24 25 26 26 27 27 27 28 29 29 29 30 30 30 30 30 30 31 31 31
21 21 21 21 22 23 23 23 24 24 24 24 24 24 23 23 24 24 23 23 24 24 24 24 24 25 26 27 27 27 28 29 29 29 29 30 30 30 30 30 31 32 33 33
Wind_Direction
226 227 228 231 233 236 239 243 247 248 249 252 253 254 256 259 263 271 278 286 290 296 301 304 306 308 311 312 314 316 318 317 316 316 316 318 320 323 325 325 322 320 317 314
226 227 228 230 232 234 239 243 246 248 246 250 251 252 254 257 261 266 273 282 288 294 299 301 303 305 305 307 311 311 312 312 312 312 312 314 316 317 318 319 318 315 314 313
228 228 229 230 231 234 238 242 246 246 246 247 248 250 253 256 259 263 270 279 285 291 295 295 298 300 302 302 305 306 306 307 308 308 309 310 312 314 314 314 313 312 312 311
230 229 231 231 231 234 237 240 243 245 246 247 247 249 251 252 257 263 269 275 282 288 291 292 294 295 295 295 298 300 302 303 303 304 305 306 308 309 310 310 310 309 310 310
230 231 232 231 231 233 236 239 242 244 245 246 247 249 251 253 256 261 267 272 278 283 286 290 290 290 290 291 293 294 297 298 299 301 303 304 304 306 307 308 308 308 308 309
230 231 232 233 234 235 238 240 241 244 246 246 246 249 252 257 260 263 268 273 277 282 285 287 288 289 287 287 289 291 294 295 296 298 300 302 304 305 305 307 308 307 308 309
230 233 235 235 236 237 239 240 241 243 246 247 247 249 251 256 261 264 269 272 276 279 282 283 284 286 285 284 288 290 291 291 295 297 298 300 304 305 304 306 307 308 308 307
230 233 236 236 237 239 241 242 242 243 245 247 248 248 251 255 261 265 267 270 273 275 278 279 280 282 283 282 284 287 289 290 292 295 297 300 303 305 304 304 305 306 306 306
232 234 236 238 239 240 241 242 243 243 245 247 248 249 252 256 261 265 266 269 272 272 271 275 277 279 281 281 280 282 285 287 289 293 297 299 300 302 304 303 303 304 305 305
232 233 235 237 239 241 241 242 242 242 244 246 248 251 255 258 261 264 269 270 271 271 270 273 275 276 279 279 279 280 282 284 288 291 294 297 297 297 300 303 302 303 304 304
232 233 235 237 239 241 241 240 241 242 244 246 249 250 254 258 261 265 269 270 271 274 275 273 273 274 276 277 278 281 283 284 286 289 292 294 295 295 299 302 303 303 304 304
233 233 234 235 238 240 240 240 240 243 247 248 249 251 254 257 261 264 267 270 272 273 273 272 272 273 274 275 276 279 282 283 285 287 289 291 292 294 297 300 301 303 304 304
233 233 235 237 238 238 240 241 242 244 246 249 250 253 255 257 259 262 264 267 269 270 270 270 270 272 274 274 275 277 280 282 283 285 287 289 290 293 296 298 299 301 302 303
232 234 236 238 239 239 241 242 243 246 247 249 251 252 253 255 258 261 262 262 265 266 267 269 269 270 273 272 273 276 277 278 280 282 285 287 289 291 294 296 298 299 301 301
233 236 236 236 238 241 242 244 246 247 247 247 249 251 252 253 255 258 260 262 262 262 265 267 267 268 270 272 273 274 276 277 277 279 282 285 287 290 293 296 298 299 300 301
233 236 237 237 239 241 243 245 245 246 247 248 249 249 249 251 252 255 259 262 262 263 265 267 267 265 266 268 270 272 274 275 275 277 280 283 286 289 294 297 299 299 301 301
234 237 238 241 241 242 244 245 245 247 249 250 250 250 250 251 253 255 259 261 262 262 264 264 261 263 264 265 268 269 272 273 275 277 279 281 284 287 290 294 297 298 300 300
235 237 238 241 243 245 245 245 245 246 247 249 249 249 250 252 254 256 257 258 259 260 262 262 262 263 264 264 264 268 271 273 273 275 277 279 282 284 287 291 294 296 297 299
235 237 238 240 242 244 244 244 244 245 246 246 247 248 250 252 255 256 255 257 259 260 262 262 263 263 260 261 266 268 269 271 274 275 277 279 281 284 286 289 292 294 296 297
237 239 239 239 240 241 241 244 245 244 244 246 247 248 250 252 253 253 254 256 258 259 262 264 262 262 263 265 266 268 271 273 275 276 277 279 280 282 285 287 290 293 295 296
234 236 237 238 240 242 242 242 242 242 245 248 248 248 250 252 253 252 253 255 257 258 259 261 261 263 265 268 268 270 272 274 275 276 277 278 280 282 285 286 288 290 292 295
235 236 239 241 242 242 242 240 239 242 245 247 247 247 250 252 254 254 254 255 255 257 259 260 261 263 265 267 269 270 271 273 275 277 278 280 281 283 285 286 287 289 292 294
238 240 241 242 243 241 242 240 241 242 243 245 246 247 249 253 254 255 255 254 254 256 258 260 261 263 265 267 269 270 271 273 275 276 278 280 282 283 285 286 287 288 290 292
240 242 243 243 242 239 240 240 241 242 243 245 246 247 249 252 253 253 254 256 257 257 257 259 261 263 265 267 269 271 271 273 275 276 278 281 283 285 286 286 287 287 288 290
235 237 239 240 239 238 238 238 240 242 245 247 247 248 250 252 253 252 253 255 257 258 259 260 262 264 267 269 270 271 273 275 276 277 279 282 285 286 287 287 287 288 289 290
237 238 238 238 237 237 238 239 240 242 244 247 248 250 250 251 253 253 254 255 257 259 260 262 265 267 270 272 272 273 274 275 276 279 281 283 285 286 286 287 289 289 289 290
235 236 238 241 242 240 240 241 241 242 244 245 247 249 252 253 254 255 256 257 259 261 262 264 266 268 270 271 271 272 274 276 277 279 280 282 283 285 286 287 288 289 289 289
Height
5868 5873 5878 5882 5886 5889 5892 5895 5899 5902 5905 5908 5910 5911 5913 5914 5915 5915 5915 5915 5915 5914 5913 5912 5911 5910 5909 5907 5906 5904 5903 5901 5899 5897 5895 5893 5891 5889 5887 5885 5883 5881 5879 5877
5861 5866 5871 5875 5879 5883 5887 5890 5893 5896 5900 5903 5904 5906 5908 5909 5911 5911 5911 5911 5911 5910 5909 5909 5908 5907 5906 5904 5903 5901 5900 5898 5896 5894 5892 5891 5889 5886 5884 5883 5880 5878 5876 5874
5854 5859 5863 5867 5873 5877 5880 5884 5888 5891 5895 5897 5899 5901 5903 5905 5906 5907 5907 5907 5907 5906 5906 5905 5904 5903 5902 5901 5899 5898 5897 5895 5893 5891 5889 5888 5886 5883 5882 5880 5878 5875 5873 5871
5847 5852 5856 5864 5867 5871 5874 5878 5882 5885 5889 5892 5894 5896 5898 5899 5901 5902 5902 5902 5902 5901 5901 5900 5900 5899 5897 5896 5895 5894 5892 5891 5889 5888 5886 5884 5882 5880 5878 5876 5874 5872 5870 5868
5840 5844 5849 5855 5860 5864 5868 5872 5876 5880 5883 5886 5888 5890 5892 5893 5895 5896 5897 5897 5896 5896 5896 5895 5895 5894 5893 5892 5891 5889 5888 5886 5885 5884 5882 5880 5878 5876 5874 5873 5871 5868 5866 5865
5833 5837 5842 5849 5854 5857 5862 5865 5870 5873 5877 5880 5882 5884 5887 5888 5889 5890 5890 5891 5891 5891 5890 5890 5889 5888 5888 5887 5886 5885 5884 5882 5881 5880 5878 5877 5875 5872 5871 5869 5866 5864 5862 5861
5827 5831 5836 5842 5846 5851 5856 5860 5864 5867 5870 5873 5875 5879 5881 5882 5883 5884 5884 5885 5885 5884 5884 5884 5884 5883 5882 5881 5880 5880 5879 5878 5877 5875 5874 5872 5870 5868 5866 5865 5862 5860 5859 5857
5820 5825 5831 5835 5839 5844 5848 5853 5857 5860 5863 5866 5869 5871 5873 5875 5876 5877 5878 5879 5878 5878 5878 5878 5877 5877 5875 5875 5875 5874 5874 5872 5872 5870 5869 5868 5866 5864 5862 5860 5858 5856 5855 5853
5815 5821 5825 5829 5833 5837 5841 5846 5849 5853 5856 5859 5861 5864 5866 5868 5869 5870 5870 5871 5871 5870 5871 5870 5870 5870 5869 5869 5869 5868 5868 5867 5866 5865 5864 5863 5861 5859 5858 5856 5854 5852 5850 5848
5808 5813 5818 5822 5826 5830 5834 5838 5842 5845 5849 5851 5854 5856 5858 5860 5862 5862 5862 5862 5863 5862 5862 5862 5862 5862 5862 5862 5861 5862 5861 5861 5860 5860 5859 5857 5856 5854 5853 5851 5849 5847 5845 5843
5800 5806 5810 5815 5819 5823 5827 5831 5834 5838 5841 5844 5846 5849 5851 5852 5853 5854 5855 5855 5855 5855 5855 5855 5854 5854 5855 5855 5855 5855 5855 5855 5854 5854 5853 5852 5851 5849 5848 5846 5844 5842 5840 5837
5794 5799 5804 5808 5812 5816 5820 5823 5827 5830 5833 5836 5838 5840 5842 5844 5845 5846 5846 5846 5846 5846 5847 5847 5847 5847 5848 5848 5849 5849 5849 5848 5848 5848 5847 5846 5845 5843 5842 5840 5838 5836 5834 5832
5787 5792 5796 5801 5805 5809 5812 5815 5819 5822 5825 5827 5830 5832 5834 5835 5837 5837 5838 5838 5838 5839 5839 5839 5840 5841 5842 5842 5843 5843 5843 5842 5842 5842 5841 5840 5839 5838 5836 5835 5832 5830 5828 5826
5779 5784 5789 5794 5798 5801 5805 5808 5811 5814 5817 5819 5821 5823 5825 5826 5828 5829 5829 5829 5830 5831 5832 5832 5833 5834 5835 5835 5836 5836 5836 5836 5836 5835 5835 5834 5833 5832 5830 5829 5827 5824 5822 5820
5773 5777 5782 5786 5790 5793 5797 5800 5803 5806 5808 5810 5813 5814 5816 5817 5819 5821 5821 5822 5822 5823 5824 5825 5826 5827 5828 5828 5829 5830 5830 5830 5829 5829 5828 5828 5827 5825 5824 5822 5820 5818 5816 5813
5766 5770 5774 5778 5782 5785 5789 5792 5794 5797 5799 5801 5803 5805 5807 5809 5811 5813 5814 5815 5815 5816 5817 5818 5819 5820 5821 5822 5823 5823 5823 5823 5823 5822 5822 5821 5820 5819 5817 5815 5813 5811 5809 5807
5759 5763 5767 5770 5774 5777 5780 5783 5786 5788 5791 5793 5795 5797 5799 5802 5803 5805 5806 5807 5808 5808 5809 5810 5811 5812 5813 5815 5816 5816 5816 5816 5815 5815 5815 5814 5813 5812 5810 5809 5807 5805 5803 5801
5751 5756 5759 5763 5766 5769 5772 5774 5777 5779 5782 5785 5787 5790 5792 5794 5795 5796 5798 5799 5799 5801 5802 5803 5803 5804 5806 5807 5808 5808 5808 5808 5808 5808 5808 5807 5806 5805 5803 5802 5800 5798 5796 5794
5744 5748 5752 5755 5758 5761 5763 5766 5768 5771 5774 5777 5779 5782 5784 5786 5787 5788 5789 5791 5792 5793 5795 5796 5796 5797 5798 5799 5800 5801 5801 5801 5801 5800 5800 5799 5798 5797 5796 5795 5793 5791 5789 5786
5737 5741 5744 5747 5750 5753 5755 5758 5761 5764 5766 5769 5771 5774 5776 5778 5779 5780 5782 5783 5785 5786 5788 5788 5789 5790 5791 5792 5793 5794 5794 5794 5794 5793 5792 5791 5791 5789 5788 5787 5785 5784 5781 5779
5731 5734 5737 5739 5742 5745 5747 5750 5753 5756 5759 5761 5764 5766 5768 5770 5771 5773 5774 5776 5777 5778 5779 5781 5782 5784 5785 5786 5786 5787 5787 5787 5786 5785 5785 5784 5783 5782 5780 5779 5778 5776 5774 5771
5725 5728 5730 5732 5735 5737 5740 5742 5745 5748 5751 5754 5756 5758 5760 5762 5763 5765 5766 5768 5770 5771 5772 5773 5775 5776 5777 5778 5778 5779 5779 5779 5778 5778 5777 5776 5775 5774 5772 5771 5769 5767 5766 5763
5719 5721 5724 5726 5728 5731 5733 5735 5738 5741 5744 5747 5749 5751 5753 5755 5756 5757 5759 5760 5762 5763 5765 5766 5768 5769 5769 5770 5770 5771 5771 5770 5770 5770 5769 5768 5767 5765 5764 5762 5761 5759 5757 5755
5713 5715 5717 5719 5722 5724 5727 5729 5732 5734 5737 5740 5742 5744 5745 5747 5749 5750 5751 5753 5754 5756 5758 5759 5760 5761 5762 5762 5763 5763 5763 5763 5762 5762 5761 5760 5758 5757 5755 5753 5752 5750 5748 5746
5707 5709 5711 5713 5716 5718 5720 5723 5725 5728 5731 5733 5735 5736 5738 5740 5741 5743 5744 5745 5747 5749 5750 5751 5753 5753 5754 5754 5754 5755 5755 5754 5754 5753 5752 5751 5750 5748 5746 5744 5742 5741 5738 5736
5702 5704 5706 5708 5710 5712 5715 5717 5719 5722 5724 5726 5728 5729 5731 5733 5734 5736 5737 5739 5740 5741 5743 5744 5745 5746 5746 5746 5746 5746 5746 5746 5745 5744 5743 5742 5741 5739 5737 5735 5733 5731 5729 5727
5697 5699 5701 5702 5704 5706 5709 5711 5713 5716 5718 5720 5721 5723 5725 5726 5728 5729 5731 5732 5734 5735 5736 5737 5738 5738 5738 5738 5738 5738 5738 5737 5736 5735 5734 5733 5732 5730 5728 5726 5724 5722 5719 5717